Location: Bremen
(53.0793°N, 8.8017°E)
Time: 20:47:44
(UTC+02:00)

Vanguard 2 Rocket - Pass Details

Date: 21 April 2024
Orbit: 556 x 3304 km, 32.9° (Epoch: 20 May)

Event Time Altitude Azimuth Distance (km) Brightness Sun altitude
Rises 22:41:18 0° 225° (SW) 6,197 11.1 -16.1°
Reaches altitude 10° 22:45:34 10° 217° (SW) 5,508 10.7 -16.5°
Maximum altitude 23:00:25 34° 161° (SSE) 4,460 9.8 -17.9°
Drops below altitude 10° 23:16:50 10° 106° (ESE) 6,098 10.7 -19.3°
Sets 23:21:52 0° 98° (E) 6,915 11.0 -19.7°
